Time,TemperatureF,DewpointF,PressureIn,WindDirection,WindDirectionDegrees,WindSpeedMPH,WindSpeedGustMPH,Humidity,HourlyPrecipIn,Conditions,Clouds,dailyrainin,SoftwareType,DateUTC
2013-03-12 00:02:00,32.0,21.0,27.19,ESE,112,3.0,6.0,63,0.00,,,0.00,Rainwise IP-100,2013-03-12 06:02:00,
2013-03-12 00:07:00,32.0,21.0,27.19,East,90,3.0,7.0,63,0.00,,,0.00,Rainwise IP-100,2013-03-12 06:07:00,
2013-03-12 00:12:00,32.0,21.0,27.19,East,90,2.0,6.0,63,0.00,,,0.00,Rainwise IP-100,2013-03-12 06:12:00,
2013-03-12 00:17:00,32.0,21.0,27.19,ESE,112,1.0,6.0,63,0.00,,,0.00,Rainwise IP-100,2013-03-12 06:17:00,
2013-03-12 00:22:00,32.0,21.0,27.19,East,90,1.0,3.0,63,0.00,,,0.00,Rainwise IP-100,2013-03-12 06:22:00,
2013-03-12 00:27:00,32.0,21.0,27.19,ESE,112,3.0,5.0,63,0.00,,,0.00,Rainwise IP-100,2013-03-12 06:27:00,
2013-03-12 00:32:00,32.0,21.0,27.19,ESE,112,6.0,6.0,62,0.00,,,0.00,Rainwise IP-100,2013-03-12 06:32:00,
2013-03-12 00:37:00,32.0,21.0,27.19,East,90,0.0,6.0,63,0.00,,,0.00,Rainwise IP-100,2013-03-12 06:37:00,
2013-03-12 00:42:00,31.0,21.0,27.19,East,90,0.0,0.0,64,0.00,,,0.00,Rainwise IP-100,2013-03-12 06:42:00,
2013-03-12 00:47:00,31.0,21.0,27.19,SW,225,1.0,2.0,66,0.00,,,0.00,Rainwise IP-100,2013-03-12 06:47:00,
2013-03-12 00:52:00,30.0,21.0,27.19,SW,225,0.0,2.0,67,0.00,,,0.00,Rainwise IP-100,2013-03-12 06:52:00,
2013-03-12 00:57:00,30.0,23.0,27.19,SW,225,0.0,0.0,70,0.00,,,0.00,Rainwise IP-100,2013-03-12 06:57:00,
2013-03-12 01:02:00,30.0,23.0,27.19,ESE,112,2.0,4.0,69,0.00,,,0.00,Rainwise IP-100,2013-03-12 07:02:00,
2013-03-12 01:07:00,31.0,21.0,27.19,SE,135,4.0,5.0,67,0.00,,,0.00,Rainwise IP-100,2013-03-12 07:07:00,
2013-03-12 01:12:00,32.0,23.0,27.19,SE,135,4.0,4.0,66,0.00,,,0.00,Rainwise IP-100,2013-03-12 07:12:00,
2013-03-12 01:17:00,32.0,23.0,27.19,SE,135,1.0,5.0,65,0.00,,,0.00,Rainwise IP-100,2013-03-12 07:17:00,
2013-03-12 01:22:00,32.0,23.0,27.18,ESE,112,2.0,6.0,64,0.00,,,0.00,Rainwise IP-100,2013-03-12 07:22:00,
2013-03-12 01:27:00,32.0,23.0,27.18,SSE,157,4.0,5.0,64,0.00,,,0.00,Rainwise IP-100,2013-03-12 07:27:00,
2013-03-12 01:32:00,32.0,23.0,27.18,ESE,112,1.0,6.0,64,0.00,,,0.00,Rainwise IP-100,2013-03-12 07:32:00,
2013-03-12 01:37:00,32.0,23.0,27.18,ESE,112,2.0,6.0,64,0.00,,,0.00,Rainwise IP-100,2013-03-12 07:37:00,
2013-03-12 01:42:00,32.0,23.0,27.17,SE,135,3.0,5.0,64,0.00,,,0.00,Rainwise IP-100,2013-03-12 07:42:00,
2013-03-12 01:47:00,32.0,23.0,27.17,SSE,157,3.0,5.0,64,0.00,,,0.00,Rainwise IP-100,2013-03-12 07:47:00,
2013-03-12 01:52:00,32.0,23.0,27.18,SSE,157,0.0,4.0,64,0.00,,,0.00,Rainwise IP-100,2013-03-12 07:52:00,
2013-03-12 01:57:00,32.0,23.0,27.18,SSE,157,0.0,1.0,65,0.00,,,0.00,Rainwise IP-100,2013-03-12 07:57:00,
2013-03-12 02:02:00,32.0,23.0,27.19,SSE,157,0.0,0.0,67,0.00,,,0.00,Rainwise IP-100,2013-03-12 08:02:00,
2013-03-12 02:07:00,32.0,23.0,27.19,East,90,1.0,4.0,66,0.00,,,0.00,Rainwise IP-100,2013-03-12 08:07:00,
2013-03-12 02:12:00,32.0,23.0,27.19,ESE,112,1.0,4.0,66,0.00,,,0.00,Rainwise IP-100,2013-03-12 08:12:00,
2013-03-12 02:17:00,32.0,23.0,27.19,ESE,112,0.0,4.0,65,0.00,,,0.00,Rainwise IP-100,2013-03-12 08:17:00,
2013-03-12 02:22:00,31.0,21.0,27.19,ESE,112,0.0,0.0,67,0.00,,,0.00,Rainwise IP-100,2013-03-12 08:22:00,
2013-03-12 02:27:00,31.0,23.0,27.19,ENE,67,3.0,3.0,68,0.00,,,0.00,Rainwise IP-100,2013-03-12 08:27:00,
2013-03-12 02:32:00,31.0,23.0,27.19,NE,45,2.0,6.0,68,0.00,,,0.00,Rainwise IP-100,2013-03-12 08:32:00,
2013-03-12 02:37:00,31.0,23.0,27.19,ESE,112,1.0,7.0,68,0.00,,,0.00,Rainwise IP-100,2013-03-12 08:37:00,
2013-03-12 02:42:00,31.0,23.0,27.19,NE,45,5.0,6.0,68,0.00,,,0.00,Rainwise IP-100,2013-03-12 08:42:00,
2013-03-12 02:47:00,31.0,23.0,27.19,ENE,67,3.0,7.0,69,0.00,,,0.00,Rainwise IP-100,2013-03-12 08:47:00,
2013-03-12 02:52:00,31.0,23.0,27.19,NE,45,5.0,7.0,69,0.00,,,0.00,Rainwise IP-100,2013-03-12 08:52:00,
2013-03-12 02:57:00,31.0,23.0,27.19,ESE,112,5.0,6.0,70,0.00,,,0.00,Rainwise IP-100,2013-03-12 08:57:00,
2013-03-12 03:02:00,31.0,23.0,27.19,SE,135,3.0,6.0,70,0.00,,,0.00,Rainwise IP-100,2013-03-12 09:02:00,
2013-03-12 03:07:00,32.0,23.0,27.19,East,90,1.0,6.0,68,0.00,,,0.00,Rainwise IP-100,2013-03-12 09:07:00,
2013-03-12 03:12:00,32.0,23.0,27.19,ESE,112,4.0,6.0,67,0.00,,,0.00,Rainwise IP-100,2013-03-12 09:12:00,
2013-03-12 03:17:00,32.0,23.0,27.19,ENE,67,5.0,6.0,67,0.00,,,0.00,Rainwise IP-100,2013-03-12 09:17:00,
2013-03-12 03:22:00,32.0,23.0,27.19,ENE,67,6.0,9.0,67,0.00,,,0.00,Rainwise IP-100,2013-03-12 09:22:00,
2013-03-12 03:27:00,32.0,23.0,27.19,East,90,6.0,7.0,67,0.00,,,0.00,Rainwise IP-100,2013-03-12 09:27:00,
2013-03-12 03:32:00,32.0,23.0,27.18,East,90,4.0,8.0,67,0.00,,,0.00,Rainwise IP-100,2013-03-12 09:32:00,
2013-03-12 03:37:00,32.0,23.0,27.18,ESE,112,3.0,7.0,67,0.00,,,0.00,Rainwise IP-100,2013-03-12 09:37:00,
2013-03-12 03:42:00,32.0,23.0,27.18,East,90,1.0,6.0,67,0.00,,,0.00,Rainwise IP-100,2013-03-12 09:42:00,
2013-03-12 03:47:00,32.0,23.0,27.18,East,90,0.0,5.0,68,0.00,,,0.00,Rainwise IP-100,2013-03-12 09:47:00,
2013-03-12 03:52:00,31.0,23.0,27.17,ESE,112,0.0,5.0,69,0.00,,,0.00,Rainwise IP-100,2013-03-12 09:52:00,
2013-03-12 03:57:00,31.0,23.0,27.17,ESE,112,2.0,6.0,70,0.00,,,0.00,Rainwise IP-100,2013-03-12 09:57:00,
2013-03-12 04:02:00,31.0,23.0,27.18,ESE,112,2.0,3.0,72,0.00,,,0.00,Rainwise IP-100,2013-03-12 10:02:00,
2013-03-12 04:07:00,31.0,23.0,27.18,East,90,2.0,5.0,72,0.00,,,0.00,Rainwise IP-100,2013-03-12 10:07:00,
2013-03-12 04:12:00,31.0,23.0,27.18,ENE,67,1.0,6.0,70,0.00,,,0.00,Rainwise IP-100,2013-03-12 10:12:00,
2013-03-12 04:17:00,31.0,23.0,27.18,ENE,67,6.0,6.0,68,0.00,,,0.00,Rainwise IP-100,2013-03-12 10:17:00,
2013-03-12 04:22:00,31.0,23.0,27.17,ENE,67,2.0,7.0,68,0.00,,,0.00,Rainwise IP-100,2013-03-12 10:22:00,
2013-03-12 04:27:00,31.0,23.0,27.17,ENE,67,1.0,6.0,70,0.00,,,0.00,Rainwise IP-100,2013-03-12 10:27:00,
2013-03-12 04:32:00,31.0,23.0,27.17,East,90,0.0,6.0,69,0.00,,,0.00,Rainwise IP-100,2013-03-12 10:32:00,
2013-03-12 04:37:00,31.0,23.0,27.17,ENE,67,2.0,9.0,68,0.00,,,0.00,Rainwise IP-100,2013-03-12 10:37:00,
2013-03-12 04:42:00,31.0,21.0,27.17,ENE,67,3.0,6.0,66,0.00,,,0.00,Rainwise IP-100,2013-03-12 10:42:00,
2013-03-12 04:47:00,32.0,23.0,27.17,NE,45,3.0,8.0,65,0.00,,,0.00,Rainwise IP-100,2013-03-12 10:47:00,
2013-03-12 04:52:00,32.0,23.0,27.16,East,90,4.0,7.0,65,0.00,,,0.00,Rainwise IP-100,2013-03-12 10:52:00,
2013-03-12 04:57:00,32.0,23.0,27.16,ENE,67,4.0,10.0,65,0.00,,,0.00,Rainwise IP-100,2013-03-12 10:57:00,
2013-03-12 05:02:00,32.0,23.0,27.16,ENE,67,7.0,9.0,65,0.00,,,0.00,Rainwise IP-100,2013-03-12 11:02:00,
2013-03-12 05:07:00,32.0,23.0,27.16,NE,45,6.0,10.0,65,0.00,,,0.00,Rainwise IP-100,2013-03-12 11:07:00,
2013-03-12 05:12:00,32.0,23.0,27.16,ESE,112,3.0,7.0,65,0.00,,,0.00,Rainwise IP-100,2013-03-12 11:12:00,
2013-03-12 05:17:00,32.0,23.0,27.16,ENE,67,0.0,6.0,65,0.00,,,0.00,Rainwise IP-100,2013-03-12 11:17:00,
2013-03-12 05:22:00,32.0,23.0,27.16,East,90,2.0,5.0,66,0.00,,,0.00,Rainwise IP-100,2013-03-12 11:22:00,
2013-03-12 05:27:00,32.0,23.0,27.16,ESE,112,2.0,5.0,67,0.00,,,0.00,Rainwise IP-100,2013-03-12 11:27:00,
2013-03-12 05:32:00,32.0,23.0,27.15,ESE,112,0.0,3.0,69,0.00,,,0.00,Rainwise IP-100,2013-03-12 11:32:00,
2013-03-12 05:37:00,32.0,23.0,27.15,ESE,112,0.0,2.0,69,0.00,,,0.00,Rainwise IP-100,2013-03-12 11:37:00,
2013-03-12 05:42:00,31.0,23.0,27.15,ESE,112,0.0,0.0,70,0.00,,,0.00,Rainwise IP-100,2013-03-12 11:42:00,
2013-03-12 05:47:00,31.0,23.0,27.15,ESE,112,1.0,2.0,72,0.00,,,0.00,Rainwise IP-100,2013-03-12 11:47:00,
2013-03-12 05:52:00,31.0,23.0,27.15,ESE,112,0.0,2.0,72,0.00,,,0.00,Rainwise IP-100,2013-03-12 11:52:00,
2013-03-12 05:57:00,31.0,23.0,27.15,ESE,112,0.0,2.0,72,0.00,,,0.00,Rainwise IP-100,2013-03-12 11:57:00,
2013-03-12 06:02:00,31.0,23.0,27.15,ESE,112,0.0,1.0,72,0.00,,,0.00,Rainwise IP-100,2013-03-12 12:02:00,
2013-03-12 06:07:00,31.0,23.0,27.15,SSW,202,0.0,2.0,72,0.00,,,0.00,Rainwise IP-100,2013-03-12 12:07:00,
2013-03-12 06:12:00,31.0,23.0,27.16,SSW,202,0.0,0.0,72,0.00,,,0.00,Rainwise IP-100,2013-03-12 12:12:00,
2013-03-12 06:17:00,31.0,23.0,27.16,South,180,2.0,3.0,72,0.00,,,0.00,Rainwise IP-100,2013-03-12 12:17:00,
2013-03-12 06:22:00,31.0,23.0,27.16,South,180,0.0,3.0,72,0.00,,,0.00,Rainwise IP-100,2013-03-12 12:22:00,
2013-03-12 06:27:00,31.0,23.0,27.16,SSE,157,3.0,3.0,73,0.00,,,0.00,Rainwise IP-100,2013-03-12 12:27:00,
2013-03-12 06:32:00,31.0,23.0,27.15,SSE,157,0.0,4.0,73,0.00,,,0.00,Rainwise IP-100,2013-03-12 12:32:00,
2013-03-12 06:37:00,31.0,23.0,27.15,SSE,157,0.0,0.0,73,0.00,,,0.00,Rainwise IP-100,2013-03-12 12:37:00,
2013-03-12 06:42:00,31.0,23.0,27.16,NE,45,1.0,4.0,73,0.00,,,0.00,Rainwise IP-100,2013-03-12 12:42:00,
2013-03-12 06:47:00,31.0,23.0,27.16,NE,45,0.0,1.0,73,0.00,,,0.00,Rainwise IP-100,2013-03-12 12:47:00,
2013-03-12 06:53:00,31.0,23.0,27.16,NE,45,0.0,4.0,73,0.00,,,0.00,Rainwise IP-100,2013-03-12 12:53:00,
2013-03-12 06:58:00,32.0,23.0,27.16,ESE,112,2.0,6.0,68,0.00,,,0.00,Rainwise IP-100,2013-03-12 12:58:00,
2013-03-12 07:03:00,32.0,23.0,27.15,East,90,2.0,7.0,66,0.00,,,0.00,Rainwise IP-100,2013-03-12 13:03:00,
2013-03-12 07:08:00,32.0,23.0,27.15,ENE,67,1.0,5.0,65,0.00,,,0.00,Rainwise IP-100,2013-03-12 13:08:00,
2013-03-12 07:13:00,32.0,21.0,27.15,ENE,67,1.0,7.0,63,0.00,,,0.00,Rainwise IP-100,2013-03-12 13:13:00,
2013-03-12 07:18:00,32.0,21.0,27.15,ENE,67,3.0,6.0,63,0.00,,,0.00,Rainwise IP-100,2013-03-12 13:18:00,
2013-03-12 07:23:00,33.0,23.0,27.14,ENE,67,1.0,5.0,64,0.00,,,0.00,Rainwise IP-100,2013-03-12 13:23:00,
2013-03-12 07:28:00,33.0,23.0,27.14,East,90,0.0,4.0,65,0.00,,,0.00,Rainwise IP-100,2013-03-12 13:28:00,
2013-03-12 07:33:00,33.0,23.0,27.14,East,90,0.0,3.0,64,0.00,,,0.00,Rainwise IP-100,2013-03-12 13:33:00,
2013-03-12 07:38:00,33.0,23.0,27.14,ENE,67,1.0,6.0,63,0.00,,,0.00,Rainwise IP-100,2013-03-12 13:38:00,
2013-03-12 07:43:00,33.0,23.0,27.13,ESE,112,4.0,4.0,62,0.00,,,0.00,Rainwise IP-100,2013-03-12 13:43:00,
2013-03-12 07:48:00,33.0,23.0,27.13,ESE,112,2.0,4.0,62,0.00,,,0.00,Rainwise IP-100,2013-03-12 13:48:00,
2013-03-12 07:53:00,33.0,23.0,27.13,ENE,67,1.0,5.0,62,0.00,,,0.00,Rainwise IP-100,2013-03-12 13:53:00,
2013-03-12 07:58:00,33.0,23.0,27.13,ENE,67,0.0,4.0,62,0.00,,,0.00,Rainwise IP-100,2013-03-12 13:58:00,
2013-03-12 08:03:00,33.0,23.0,27.14,ESE,112,3.0,5.0,62,0.00,,,0.00,Rainwise IP-100,2013-03-12 14:03:00,
2013-03-12 08:08:00,33.0,23.0,27.14,East,90,1.0,6.0,64,0.00,,,0.00,Rainwise IP-100,2013-03-12 14:08:00,
2013-03-12 08:13:00,33.0,23.0,27.14,East,90,3.0,5.0,65,0.00,,,0.00,Rainwise IP-100,2013-03-12 14:13:00,
2013-03-12 08:18:00,33.0,24.0,27.14,ENE,67,0.0,4.0,66,0.00,,,0.00,Rainwise IP-100,2013-03-12 14:18:00,
2013-03-12 08:23:00,33.0,24.0,27.14,ESE,112,0.0,2.0,68,0.00,,,0.00,Rainwise IP-100,2013-03-12 14:23:00,
2013-03-12 08:28:00,33.0,24.0,27.14,ESE,112,0.0,0.0,67,0.00,,,0.00,Rainwise IP-100,2013-03-12 14:28:00,
2013-03-12 08:33:00,33.0,24.0,27.14,WSW,247,0.0,4.0,67,0.00,,,0.00,Rainwise IP-100,2013-03-12 14:33:00,
2013-03-12 08:38:00,33.0,24.0,27.14,WSW,247,0.0,3.0,68,0.00,,,0.00,Rainwise IP-100,2013-03-12 14:38:00,
2013-03-12 08:43:00,33.0,23.0,27.14,NNE,22,1.0,4.0,65,0.00,,,0.00,Rainwise IP-100,2013-03-12 14:43:00,
2013-03-12 08:48:00,33.0,23.0,27.14,ENE,67,2.0,6.0,65,0.00,,,0.00,Rainwise IP-100,2013-03-12 14:48:00,
2013-03-12 08:53:00,33.0,24.0,27.15,NNE,22,2.0,9.0,66,0.00,,,0.00,Rainwise IP-100,2013-03-12 14:53:00,
2013-03-12 08:58:00,33.0,24.0,27.15,NE,45,2.0,7.0,71,0.00,,,0.00,Rainwise IP-100,2013-03-12 14:58:00,
2013-03-12 09:03:00,32.0,26.0,27.15,ENE,67,2.0,7.0,75,0.00,,,0.00,Rainwise IP-100,2013-03-12 15:03:00,
2013-03-12 09:08:00,32.0,26.0,27.15,ENE,67,0.0,5.0,77,0.00,,,0.00,Rainwise IP-100,2013-03-12 15:08:00,
2013-03-12 09:13:00,32.0,26.0,27.16,NNW,337,0.0,5.0,79,0.00,,,0.00,Rainwise IP-100,2013-03-12 15:13:00,
2013-03-12 09:18:00,32.0,26.0,27.16,NE,45,0.0,4.0,79,0.00,,,0.00,Rainwise IP-100,2013-03-12 15:18:00,
2013-03-12 09:23:00,32.0,26.0,27.16,ENE,67,5.0,6.0,80,0.00,,,0.00,Rainwise IP-100,2013-03-12 15:23:00,
2013-03-12 09:28:00,31.0,26.0,27.16,NNE,22,4.0,6.0,82,0.00,,,0.00,Rainwise IP-100,2013-03-12 15:28:00,
2013-03-12 09:33:00,31.0,26.0,27.16,NNE,22,1.0,7.0,82,0.00,,,0.00,Rainwise IP-100,2013-03-12 15:33:00,
2013-03-12 09:38:00,31.0,26.0,27.16,NNW,337,3.0,7.0,82,0.00,,,0.00,Rainwise IP-100,2013-03-12 15:38:00,
2013-03-12 09:43:00,31.0,26.0,27.16,NNW,337,4.0,7.0,84,0.00,,,0.00,Rainwise IP-100,2013-03-12 15:43:00,
2013-03-12 09:48:00,32.0,28.0,27.16,NNE,22,5.0,8.0,84,0.00,,,0.00,Rainwise IP-100,2013-03-12 15:48:00,
2013-03-12 09:53:00,32.0,28.0,27.16,North,360,3.0,7.0,84,0.00,,,0.00,Rainwise IP-100,2013-03-12 15:53:00,
2013-03-12 09:58:00,32.0,28.0,27.16,NNE,22,3.0,6.0,85,0.00,,,0.00,Rainwise IP-100,2013-03-12 15:58:00,
2013-03-12 10:03:00,32.0,28.0,27.16,NNE,22,2.0,6.0,85,0.00,,,0.00,Rainwise IP-100,2013-03-12 16:03:00,
2013-03-12 10:08:00,32.0,28.0,27.16,ESE,112,3.0,7.0,86,0.00,,,0.00,Rainwise IP-100,2013-03-12 16:08:00,
2013-03-12 10:13:00,32.0,29.0,27.15,ENE,67,1.0,9.0,87,0.00,,,0.00,Rainwise IP-100,2013-03-12 16:13:00,
2013-03-12 10:18:00,32.0,29.0,27.15,ENE,67,3.0,7.0,89,0.00,,,0.00,Rainwise IP-100,2013-03-12 16:18:00,
2013-03-12 10:23:00,31.0,28.0,27.15,ESE,112,2.0,10.0,90,0.00,,,0.00,Rainwise IP-100,2013-03-12 16:23:00,
2013-03-12 10:28:00,31.0,28.0,27.15,East,90,2.0,7.0,90,0.00,,,0.00,Rainwise IP-100,2013-03-12 16:28:00,
2013-03-12 10:33:00,31.0,28.0,27.16,NE,45,9.0,9.0,91,0.00,,,0.00,Rainwise IP-100,2013-03-12 16:33:00,
2013-03-12 10:38:00,31.0,29.0,27.16,ESE,112,3.0,10.0,92,0.00,,,0.00,Rainwise IP-100,2013-03-12 16:38:00,
2013-03-12 10:43:00,32.0,31.0,27.15,North,360,6.0,6.0,92,0.00,,,0.00,Rainwise IP-100,2013-03-12 16:43:00,
2013-03-12 10:48:00,32.0,31.0,27.15,ENE,67,2.0,7.0,92,0.00,,,0.00,Rainwise IP-100,2013-03-12 16:48:00,
2013-03-12 10:53:00,32.0,29.0,27.15,ESE,112,1.0,7.0,91,0.00,,,0.00,Rainwise IP-100,2013-03-12 16:53:00,
2013-03-12 10:58:00,33.0,31.0,27.15,ENE,67,3.0,8.0,88,0.00,,,0.00,Rainwise IP-100,2013-03-12 16:58:00,
2013-03-12 11:03:00,33.0,31.0,27.14,NE,45,6.0,9.0,88,0.00,,,0.00,Rainwise IP-100,2013-03-12 17:03:00,
2013-03-12 11:08:00,34.0,31.0,27.14,ESE,112,5.0,7.0,87,0.00,,,0.00,Rainwise IP-100,2013-03-12 17:08:00,
2013-03-12 11:13:00,34.0,31.0,27.13,ENE,67,6.0,11.0,86,0.00,,,0.00,Rainwise IP-100,2013-03-12 17:13:00,
2013-03-12 11:18:00,34.0,31.0,27.13,ENE,67,6.0,10.0,85,0.00,,,0.00,Rainwise IP-100,2013-03-12 17:18:00,
2013-03-12 11:23:00,34.0,31.0,27.13,NE,45,6.0,7.0,84,0.00,,,0.00,Rainwise IP-100,2013-03-12 17:23:00,
2013-03-12 11:28:00,35.0,31.0,27.13,NNE,22,3.0,9.0,84,0.00,,,0.00,Rainwise IP-100,2013-03-12 17:28:00,
2013-03-12 11:33:00,35.0,31.0,27.12,NNE,22,3.0,10.0,84,0.00,,,0.00,Rainwise IP-100,2013-03-12 17:33:00,
2013-03-12 11:38:00,35.0,31.0,27.12,NNW,337,2.0,7.0,84,0.00,,,0.00,Rainwise IP-100,2013-03-12 17:38:00,
2013-03-12 11:43:00,35.0,29.0,27.12,NNE,22,6.0,11.0,82,0.00,,,0.00,Rainwise IP-100,2013-03-12 17:43:00,
2013-03-12 11:48:00,35.0,29.0,27.12,NE,45,7.0,9.0,82,0.00,,,0.00,Rainwise IP-100,2013-03-12 17:48:00,
2013-03-12 11:53:00,36.0,32.0,27.11,ESE,112,3.0,8.0,84,0.00,,,0.00,Rainwise IP-100,2013-03-12 17:53:00,
2013-03-12 11:58:00,36.0,31.0,27.11,ESE,112,4.0,7.0,83,0.00,,,0.00,Rainwise IP-100,2013-03-12 17:58:00,
2013-03-12 12:03:00,36.0,31.0,27.11,NNW,337,2.0,6.0,82,0.00,,,0.00,Rainwise IP-100,2013-03-12 18:03:00,
2013-03-12 12:08:00,37.0,32.0,27.11,NW,315,3.0,4.0,81,0.00,,,0.00,Rainwise IP-100,2013-03-12 18:08:00,
2013-03-12 12:13:00,38.0,32.0,27.10,NNW,337,3.0,6.0,79,0.00,,,0.00,Rainwise IP-100,2013-03-12 18:13:00,
2013-03-12 12:18:00,38.0,32.0,27.10,NNW,337,5.0,5.0,78,0.00,,,0.00,Rainwise IP-100,2013-03-12 18:18:00,
2013-03-12 12:23:00,39.0,32.0,27.09,NNW,337,5.0,8.0,76,0.00,,,0.00,Rainwise IP-100,2013-03-12 18:23:00,
2013-03-12 12:28:00,39.0,32.0,27.09,ENE,67,4.0,7.0,75,0.00,,,0.00,Rainwise IP-100,2013-03-12 18:28:00,
2013-03-12 12:33:00,40.0,32.0,27.07,NNE,22,3.0,7.0,73,0.00,,,0.00,Rainwise IP-100,2013-03-12 18:33:00,
2013-03-12 12:38:00,40.0,33.0,27.07,North,360,5.0,6.0,75,0.00,,,0.00,Rainwise IP-100,2013-03-12 18:38:00,
2013-03-12 12:43:00,40.0,33.0,27.07,NNE,22,5.0,7.0,74,0.00,,,0.00,Rainwise IP-100,2013-03-12 18:43:00,
2013-03-12 12:48:00,40.0,33.0,27.07,NNW,337,4.0,7.0,75,0.00,,,0.00,Rainwise IP-100,2013-03-12 18:48:00,
2013-03-12 12:53:00,40.0,33.0,27.07,NW,315,5.0,7.0,75,0.00,,,0.00,Rainwise IP-100,2013-03-12 18:53:00,
2013-03-12 12:58:00,39.0,32.0,27.07,North,360,4.0,6.0,76,0.00,,,0.00,Rainwise IP-100,2013-03-12 18:58:00,
2013-03-12 13:03:00,39.0,32.0,27.08,WNW,292,4.0,6.0,76,0.00,,,0.00,Rainwise IP-100,2013-03-12 19:03:00,
2013-03-12 13:08:00,39.0,33.0,27.08,SW,225,0.0,6.0,78,0.00,,,0.00,Rainwise IP-100,2013-03-12 19:08:00,
2013-03-12 13:13:00,39.0,33.0,27.08,West,270,3.0,6.0,78,0.00,,,0.00,Rainwise IP-100,2013-03-12 19:13:00,
2013-03-12 13:18:00,40.0,33.0,27.08,NW,315,2.0,4.0,76,0.00,,,0.00,Rainwise IP-100,2013-03-12 19:18:00,
2013-03-12 13:23:00,41.0,35.0,27.07,WNW,292,5.0,6.0,75,0.00,,,0.00,Rainwise IP-100,2013-03-12 19:23:00,
2013-03-12 13:28:00,40.0,33.0,27.07,West,270,3.0,6.0,76,0.00,,,0.00,Rainwise IP-100,2013-03-12 19:28:00,
2013-03-12 13:33:00,41.0,35.0,27.06,NW,315,6.0,6.0,75,0.00,,,0.00,Rainwise IP-100,2013-03-12 19:33:00,
2013-03-12 13:38:00,42.0,35.0,27.06,North,360,5.0,7.0,73,0.00,,,0.00,Rainwise IP-100,2013-03-12 19:38:00,
2013-03-12 13:43:00,42.0,35.0,27.05,WNW,292,4.0,7.0,73,0.00,,,0.00,Rainwise IP-100,2013-03-12 19:43:00,
2013-03-12 13:48:00,42.0,35.0,27.05,NNW,337,0.0,6.0,74,0.00,,,0.00,Rainwise IP-100,2013-03-12 19:48:00,
2013-03-12 13:53:00,41.0,33.0,27.04,West,270,4.0,7.0,74,0.00,,,0.00,Rainwise IP-100,2013-03-12 19:53:00,
2013-03-12 13:58:00,42.0,35.0,27.04,West,270,3.0,6.0,74,0.00,,,0.00,Rainwise IP-100,2013-03-12 19:58:00,
2013-03-12 14:03:00,42.0,35.0,27.04,NNE,22,3.0,6.0,73,0.00,,,0.00,Rainwise IP-100,2013-03-12 20:03:00,
2013-03-12 14:08:00,42.0,35.0,27.04,WNW,292,0.0,6.0,73,0.00,,,0.00,Rainwise IP-100,2013-03-12 20:08:00,
2013-03-12 14:13:00,43.0,35.0,27.03,WNW,292,4.0,4.0,72,0.00,,,0.00,Rainwise IP-100,2013-03-12 20:13:00,
2013-03-12 14:18:00,43.0,35.0,27.03,NNW,337,5.0,6.0,72,0.00,,,0.00,Rainwise IP-100,2013-03-12 20:18:00,
2013-03-12 14:23:00,43.0,35.0,27.03,WSW,247,0.0,5.0,71,0.00,,,0.00,Rainwise IP-100,2013-03-12 20:23:00,
2013-03-12 14:28:00,43.0,35.0,27.03,NNW,337,3.0,6.0,71,0.00,,,0.00,Rainwise IP-100,2013-03-12 20:28:00,
2013-03-12 14:33:00,43.0,35.0,27.03,NW,315,4.0,5.0,71,0.00,,,0.00,Rainwise IP-100,2013-03-12 20:33:00,
2013-03-12 14:38:00,43.0,35.0,27.03,NE,45,0.0,5.0,71,0.00,,,0.00,Rainwise IP-100,2013-03-12 20:38:00,
2013-03-12 14:43:00,44.0,36.0,27.02,NNW,337,2.0,6.0,71,0.00,,,0.00,Rainwise IP-100,2013-03-12 20:43:00,
2013-03-12 14:48:00,44.0,35.0,27.02,West,270,3.0,5.0,69,0.00,,,0.00,Rainwise IP-100,2013-03-12 20:48:00,
2013-03-12 14:53:00,45.0,36.0,27.01,NW,315,0.0,6.0,69,0.00,,,0.00,Rainwise IP-100,2013-03-12 20:53:00,
2013-03-12 14:58:00,45.0,36.0,27.01,NNW,337,0.0,8.0,69,0.00,,,0.00,Rainwise IP-100,2013-03-12 20:58:00,
2013-03-12 15:03:00,45.0,35.0,27.00,West,270,4.0,7.0,68,0.00,,,0.00,Rainwise IP-100,2013-03-12 21:03:00,
2013-03-12 15:08:00,45.0,36.0,27.00,NW,315,6.0,6.0,69,0.00,,,0.00,Rainwise IP-100,2013-03-12 21:08:00,
2013-03-12 15:13:00,45.0,36.0,26.99,NNW,337,4.0,7.0,70,0.00,,,0.00,Rainwise IP-100,2013-03-12 21:13:00,
2013-03-12 15:19:00,45.0,36.0,26.99,WNW,292,4.0,7.0,69,0.00,,,0.00,Rainwise IP-100,2013-03-12 21:19:00,
2013-03-12 15:24:00,45.0,36.0,26.99,West,270,6.0,7.0,69,0.00,,,0.00,Rainwise IP-100,2013-03-12 21:24:00,
2013-03-12 15:29:00,45.0,36.0,26.99,West,270,2.0,9.0,70,0.00,,,0.00,Rainwise IP-100,2013-03-12 21:29:00,
2013-03-12 15:34:00,45.0,36.0,27.00,NW,315,5.0,8.0,71,0.00,,,0.00,Rainwise IP-100,2013-03-12 21:34:00,
2013-03-12 15:39:00,44.0,36.0,27.00,SW,225,2.0,8.0,73,0.00,,,0.00,Rainwise IP-100,2013-03-12 21:39:00,
2013-03-12 15:44:00,44.0,36.0,27.00,West,270,7.0,7.0,71,0.00,,,0.00,Rainwise IP-100,2013-03-12 21:44:00,
2013-03-12 15:49:00,44.0,36.0,27.00,WNW,292,1.0,7.0,73,0.00,,,0.00,Rainwise IP-100,2013-03-12 21:49:00,
2013-03-12 15:54:00,45.0,36.0,26.99,NNW,337,2.0,5.0,71,0.00,,,0.00,Rainwise IP-100,2013-03-12 21:54:00,
2013-03-12 15:59:00,45.0,36.0,26.99,NNW,337,2.0,6.0,71,0.00,,,0.00,Rainwise IP-100,2013-03-12 21:59:00,
2013-03-12 16:04:00,45.0,36.0,26.99,NNE,22,3.0,6.0,71,0.00,,,0.00,Rainwise IP-100,2013-03-12 22:04:00,
2013-03-12 16:09:00,45.0,36.0,26.99,NNW,337,3.0,5.0,70,0.00,,,0.00,Rainwise IP-100,2013-03-12 22:09:00,
2013-03-12 16:14:00,45.0,36.0,26.99,WNW,292,6.0,7.0,70,0.00,,,0.00,Rainwise IP-100,2013-03-12 22:14:00,
2013-03-12 16:19:00,45.0,37.0,26.99,NW,315,4.0,8.0,72,0.00,,,0.00,Rainwise IP-100,2013-03-12 22:19:00,
2013-03-12 16:24:00,45.0,37.0,27.01,NNW,337,3.0,7.0,72,0.00,,,0.00,Rainwise IP-100,2013-03-12 22:24:00,
2013-03-12 16:29:00,45.0,36.0,27.01,WNW,292,6.0,7.0,71,0.00,,,0.00,Rainwise IP-100,2013-03-12 22:29:00,
2013-03-12 16:34:00,45.0,36.0,27.00,WNW,292,5.0,7.0,71,0.00,,,0.00,Rainwise IP-100,2013-03-12 22:34:00,
2013-03-12 16:39:00,45.0,36.0,27.00,NNW,337,6.0,7.0,71,0.00,,,0.00,Rainwise IP-100,2013-03-12 22:39:00,
2013-03-12 16:44:00,46.0,37.0,26.99,WNW,292,1.0,7.0,71,0.00,,,0.00,Rainwise IP-100,2013-03-12 22:44:00,
2013-03-12 16:49:00,45.0,36.0,26.99,NNW,337,4.0,10.0,71,0.00,,,0.00,Rainwise IP-100,2013-03-12 22:49:00,
2013-03-12 16:54:00,46.0,37.0,26.99,NW,315,2.0,6.0,71,0.00,,,0.00,Rainwise IP-100,2013-03-12 22:54:00,
2013-03-12 16:59:00,46.0,37.0,26.99,NNW,337,4.0,6.0,70,0.00,,,0.00,Rainwise IP-100,2013-03-12 22:59:00,
2013-03-12 17:04:00,46.0,37.0,26.99,NW,315,3.0,5.0,70,0.00,,,0.00,Rainwise IP-100,2013-03-12 23:04:00,
2013-03-12 17:09:00,46.0,37.0,26.99,NNW,337,2.0,5.0,70,0.00,,,0.00,Rainwise IP-100,2013-03-12 23:09:00,
2013-03-12 17:14:00,46.0,36.0,26.99,NNW,337,3.0,5.0,69,0.00,,,0.00,Rainwise IP-100,2013-03-12 23:14:00,
2013-03-12 17:19:00,46.0,37.0,26.99,SW,225,2.0,5.0,70,0.00,,,0.00,Rainwise IP-100,2013-03-12 23:19:00,
2013-03-12 17:24:00,46.0,37.0,26.99,WNW,292,4.0,9.0,70,0.00,,,0.00,Rainwise IP-100,2013-03-12 23:24:00,
2013-03-12 17:29:00,46.0,37.0,26.99,WNW,292,4.0,9.0,71,0.00,,,0.00,Rainwise IP-100,2013-03-12 23:29:00,
2013-03-12 17:34:00,46.0,37.0,26.99,WNW,292,1.0,7.0,71,0.00,,,0.00,Rainwise IP-100,2013-03-12 23:34:00,
2013-03-12 17:39:00,46.0,37.0,26.99,NW,315,2.0,6.0,71,0.00,,,0.00,Rainwise IP-100,2013-03-12 23:39:00,
2013-03-12 17:44:00,46.0,37.0,26.99,West,270,4.0,6.0,71,0.00,,,0.00,Rainwise IP-100,2013-03-12 23:44:00,
2013-03-12 17:49:00,46.0,37.0,26.99,North,360,3.0,6.0,71,0.00,,,0.00,Rainwise IP-100,2013-03-12 23:49:00,
2013-03-12 17:54:00,46.0,37.0,27.00,WNW,292,0.0,4.0,72,0.00,,,0.00,Rainwise IP-100,2013-03-12 23:54:00,
2013-03-12 17:59:00,46.0,37.0,27.00,SSE,157,0.0,3.0,72,0.00,,,0.00,Rainwise IP-100,2013-03-12 23:59:00,
2013-03-12 18:04:00,46.0,37.0,26.99,SW,225,2.0,4.0,71,0.00,,,0.00,Rainwise IP-100,2013-03-13 00:04:00,
2013-03-12 18:09:00,46.0,37.0,26.99,West,270,0.0,4.0,71,0.00,,,0.00,Rainwise IP-100,2013-03-13 00:09:00,
2013-03-12 18:14:00,46.0,37.0,26.99,SSE,157,2.0,2.0,71,0.00,,,0.00,Rainwise IP-100,2013-03-13 00:14:00,
2013-03-12 18:19:00,46.0,37.0,26.99,SSE,157,0.0,3.0,71,0.00,,,0.00,Rainwise IP-100,2013-03-13 00:19:00,
2013-03-12 18:24:00,46.0,37.0,26.99,SSE,157,0.0,0.0,71,0.00,,,0.00,Rainwise IP-100,2013-03-13 00:24:00,
2013-03-12 18:29:00,46.0,37.0,26.99,SSE,157,0.0,2.0,71,0.00,,,0.00,Rainwise IP-100,2013-03-13 00:29:00,
2013-03-12 18:34:00,46.0,37.0,26.99,SSE,157,0.0,0.0,71,0.00,,,0.00,Rainwise IP-100,2013-03-13 00:34:00,
2013-03-12 18:39:00,46.0,37.0,26.99,SSE,157,0.0,1.0,71,0.00,,,0.00,Rainwise IP-100,2013-03-13 00:39:00,
2013-03-12 18:44:00,46.0,37.0,26.99,West,270,1.0,3.0,71,0.00,,,0.00,Rainwise IP-100,2013-03-13 00:44:00,
2013-03-12 18:49:00,46.0,37.0,26.99,WSW,247,0.0,6.0,71,0.00,,,0.00,Rainwise IP-100,2013-03-13 00:49:00,
2013-03-12 18:54:00,46.0,37.0,27.00,NW,315,0.0,3.0,72,0.00,,,0.00,Rainwise IP-100,2013-03-13 00:54:00,
2013-03-12 18:59:00,46.0,37.0,27.00,WSW,247,2.0,3.0,72,0.00,,,0.00,Rainwise IP-100,2013-03-13 00:59:00,
2013-03-12 19:04:00,46.0,37.0,26.99,West,270,1.0,2.0,72,0.00,,,0.00,Rainwise IP-100,2013-03-13 01:04:00,
2013-03-12 19:09:00,45.0,37.0,26.99,SE,135,1.0,3.0,73,0.00,,,0.00,Rainwise IP-100,2013-03-13 01:09:00,
2013-03-12 19:14:00,45.0,37.0,27.00,SE,135,0.0,2.0,73,0.00,,,0.00,Rainwise IP-100,2013-03-13 01:14:00,
2013-03-12 19:19:00,45.0,37.0,27.00,SE,135,1.0,3.0,74,0.00,,,0.00,Rainwise IP-100,2013-03-13 01:19:00,
2013-03-12 19:24:00,45.0,37.0,27.00,SSE,157,1.0,4.0,74,0.00,,,0.00,Rainwise IP-100,2013-03-13 01:24:00,
2013-03-12 19:29:00,45.0,37.0,27.00,SSE,157,0.0,1.0,74,0.00,,,0.00,Rainwise IP-100,2013-03-13 01:29:00,
2013-03-12 19:34:00,45.0,37.0,27.01,SSE,157,0.0,1.0,74,0.00,,,0.00,Rainwise IP-100,2013-03-13 01:34:00,
2013-03-12 19:39:00,45.0,38.0,27.01,NNW,337,0.0,4.0,75,0.00,,,0.00,Rainwise IP-100,2013-03-13 01:39:00,
2013-03-12 19:44:00,45.0,37.0,27.01,NW,315,4.0,4.0,74,0.00,,,0.00,Rainwise IP-100,2013-03-13 01:44:00,
2013-03-12 19:49:00,45.0,38.0,27.01,NW,315,0.0,6.0,75,0.00,,,0.00,Rainwise IP-100,2013-03-13 01:49:00,
2013-03-12 19:54:00,45.0,38.0,27.01,NNE,22,0.0,3.0,75,0.00,,,0.00,Rainwise IP-100,2013-03-13 01:54:00,
2013-03-12 19:59:00,45.0,38.0,27.01,NNE,22,0.0,0.0,76,0.00,,,0.00,Rainwise IP-100,2013-03-13 01:59:00,
2013-03-12 20:04:00,45.0,38.0,27.01,NNE,22,0.0,2.0,76,0.00,,,0.00,Rainwise IP-100,2013-03-13 02:04:00,
2013-03-12 20:09:00,45.0,38.0,27.01,SE,135,0.0,3.0,76,0.00,,,0.00,Rainwise IP-100,2013-03-13 02:09:00,
2013-03-12 20:14:00,45.0,38.0,27.01,North,360,3.0,4.0,76,0.00,,,0.00,Rainwise IP-100,2013-03-13 02:14:00,
2013-03-12 20:19:00,45.0,38.0,27.01,East,90,0.0,3.0,77,0.00,,,0.00,Rainwise IP-100,2013-03-13 02:19:00,
2013-03-12 20:24:00,45.0,38.0,27.01,SSE,157,1.0,3.0,77,0.00,,,0.00,Rainwise IP-100,2013-03-13 02:24:00,
2013-03-12 20:29:00,45.0,38.0,27.01,SSE,157,0.0,2.0,77,0.00,,,0.00,Rainwise IP-100,2013-03-13 02:29:00,
2013-03-12 20:34:00,44.0,37.0,27.01,SSE,157,0.0,1.0,76,0.00,,,0.00,Rainwise IP-100,2013-03-13 02:34:00,
2013-03-12 20:39:00,44.0,37.0,27.01,SSE,157,0.0,0.0,76,0.00,,,0.00,Rainwise IP-100,2013-03-13 02:39:00,
2013-03-12 20:44:00,44.0,37.0,27.01,NE,45,0.0,4.0,77,0.00,,,0.00,Rainwise IP-100,2013-03-13 02:44:00,
2013-03-12 20:49:00,45.0,38.0,27.01,WNW,292,0.0,5.0,76,0.00,,,0.00,Rainwise IP-100,2013-03-13 02:49:00,
2013-03-12 20:54:00,45.0,38.0,27.01,North,360,1.0,4.0,76,0.00,,,0.00,Rainwise IP-100,2013-03-13 02:54:00,
2013-03-12 20:59:00,45.0,38.0,27.01,North,360,0.0,4.0,76,0.00,,,0.00,Rainwise IP-100,2013-03-13 02:59:00,
2013-03-12 21:04:00,45.0,38.0,27.02,NNE,22,0.0,2.0,76,0.00,,,0.00,Rainwise IP-100,2013-03-13 03:04:00,
2013-03-12 21:09:00,45.0,38.0,27.02,NW,315,2.0,3.0,75,0.00,,,0.00,Rainwise IP-100,2013-03-13 03:09:00,
2013-03-12 21:14:00,45.0,37.0,27.02,West,270,1.0,5.0,73,0.00,,,0.00,Rainwise IP-100,2013-03-13 03:14:00,
2013-03-12 21:19:00,46.0,37.0,27.02,NW,315,4.0,7.0,70,0.00,,,0.00,Rainwise IP-100,2013-03-13 03:19:00,
2013-03-12 21:24:00,47.0,37.0,27.01,NNW,337,2.0,7.0,69,0.00,,,0.00,Rainwise IP-100,2013-03-13 03:24:00,
2013-03-12 21:29:00,47.0,37.0,27.01,WNW,292,6.0,6.0,69,0.00,,,0.00,Rainwise IP-100,2013-03-13 03:29:00,
2013-03-12 21:34:00,47.0,37.0,27.01,West,270,6.0,7.0,69,0.00,,,0.00,Rainwise IP-100,2013-03-13 03:34:00,
2013-03-12 21:39:00,47.0,37.0,27.01,NW,315,7.0,9.0,68,0.00,,,0.00,Rainwise IP-100,2013-03-13 03:39:00,
2013-03-12 21:44:00,48.0,38.0,27.01,NNW,337,5.0,9.0,67,0.00,,,0.00,Rainwise IP-100,2013-03-13 03:44:00,
2013-03-12 21:49:00,48.0,37.0,27.01,WNW,292,6.0,10.0,65,0.00,,,0.00,Rainwise IP-100,2013-03-13 03:49:00,
2013-03-12 21:54:00,48.0,37.0,27.01,WNW,292,6.0,10.0,65,0.00,,,0.00,Rainwise IP-100,2013-03-13 03:54:00,
2013-03-12 21:59:00,48.0,37.0,27.01,NNW,337,5.0,8.0,65,0.00,,,0.00,Rainwise IP-100,2013-03-13 03:59:00,
2013-03-12 22:00:00,48.0,37.0,27.01,NNW,337,7.0,8.0,65,0.00,,,0.00,Rainwise IP-100,2013-03-13 04:00:00,
2013-03-12 22:05:00,48.0,37.0,27.01,NW,315,4.0,7.0,65,0.00,,,0.00,Rainwise IP-100,2013-03-13 04:05:00,
2013-03-12 22:06:00,48.0,37.0,27.01,NW,315,6.0,7.0,65,0.00,,,0.00,Rainwise IP-100,2013-03-13 04:06:00,
2013-03-12 22:11:00,48.0,37.0,27.01,NNW,337,2.0,7.0,65,0.00,,,0.00,Rainwise IP-100,2013-03-13 04:11:00,
2013-03-12 22:17:00,48.0,37.0,27.01,West,270,5.0,6.0,65,0.00,,,0.00,Rainwise IP-100,2013-03-13 04:17:00,
2013-03-12 22:21:00,48.0,37.0,27.02,SSW,202,0.0,5.0,65,0.00,,,0.00,Rainwise IP-100,2013-03-13 04:21:00,
2013-03-12 22:26:00,48.0,37.0,27.02,NNW,337,6.0,6.0,66,0.00,,,0.00,Rainwise IP-100,2013-03-13 04:26:00,
2013-03-12 22:31:00,48.0,37.0,27.02,West,270,3.0,6.0,66,0.00,,,0.00,Rainwise IP-100,2013-03-13 04:31:00,
2013-03-12 22:36:00,48.0,37.0,27.02,West,270,2.0,7.0,66,0.00,,,0.00,Rainwise IP-100,2013-03-13 04:36:00,
2013-03-12 22:41:00,48.0,38.0,27.02,NW,315,5.0,7.0,67,0.00,,,0.00,Rainwise IP-100,2013-03-13 04:41:00,
2013-03-12 22:46:00,48.0,38.0,27.02,NW,315,1.0,6.0,67,0.00,,,0.00,Rainwise IP-100,2013-03-13 04:46:00,
2013-03-12 22:51:00,47.0,36.0,27.03,NW,315,4.0,6.0,66,0.00,,,0.00,Rainwise IP-100,2013-03-13 04:51:00,
2013-03-12 22:56:00,48.0,37.0,27.03,NNW,337,3.0,7.0,66,0.00,,,0.00,Rainwise IP-100,2013-03-13 04:56:00,
2013-03-12 23:01:00,48.0,38.0,27.03,NW,315,1.0,9.0,67,0.00,,,0.00,Rainwise IP-100,2013-03-13 05:01:00,
2013-03-12 23:06:00,47.0,36.0,27.03,WNW,292,5.0,6.0,66,0.00,,,0.00,Rainwise IP-100,2013-03-13 05:06:00,
2013-03-12 23:11:00,47.0,36.0,27.03,NW,315,2.0,7.0,66,0.00,,,0.00,Rainwise IP-100,2013-03-13 05:11:00,
2013-03-12 23:16:00,47.0,36.0,27.03,WNW,292,4.0,7.0,66,0.00,,,0.00,Rainwise IP-100,2013-03-13 05:16:00,
2013-03-12 23:21:00,47.0,36.0,27.03,NNW,337,2.0,7.0,67,0.00,,,0.00,Rainwise IP-100,2013-03-13 05:21:00,
2013-03-12 23:26:00,47.0,37.0,27.03,NNW,337,4.0,7.0,69,0.00,,,0.00,Rainwise IP-100,2013-03-13 05:26:00,
2013-03-12 23:32:00,47.0,37.0,27.03,NNW,337,3.0,7.0,70,0.00,,,0.00,Rainwise IP-100,2013-03-13 05:32:00,
2013-03-12 23:37:00,46.0,37.0,27.03,NW,315,5.0,7.0,70,0.00,,,0.00,Rainwise IP-100,2013-03-13 05:37:00,
2013-03-12 23:42:00,46.0,37.0,27.04,NW,315,3.0,10.0,71,0.00,,,0.00,Rainwise IP-100,2013-03-13 05:42:00,
2013-03-12 23:47:00,46.0,37.0,27.04,NNW,337,2.0,9.0,72,0.00,,,0.00,Rainwise IP-100,2013-03-13 05:47:00,
2013-03-12 23:52:00,46.0,38.0,27.04,NW,315,6.0,8.0,74,0.00,,,0.00,Rainwise IP-100,2013-03-13 05:52:00,
2013-03-12 23:57:00,46.0,38.0,27.04,NW,315,5.0,7.0,74,0.00,,,0.00,Rainwise IP-100,2013-03-13 05:57:00,